Regional Weather Roundup
Issued by NWS Boston, MA

Home | Current Version | Previous Version | Text Only | Print | Product List | Glossary On
Versions: 1 2 3 4 5 6 7 8 9 10 11 12 13 14 15 16 17 18 19 20 21 22 23 24 25 26 27 28 29 30 31 32 33 34 35 36 37 38 39 40 41 42 43 44 45 46 47 48 49 50
000
ASUS41 KBOX 282210
RWRBOX

REGIONAL WEATHER ROUNDUP
NATIONAL WEATHER SERVICE TAUNTON MA
600 PM EDT SAT MAR 28 2015

NOTE:  "FAIR" INDICATES FEW OR NO CLOUDS BELOW 12,000 FEET WITH NO
SIGNIFICANT WEATHER AND/OR OBSTRUCTIONS TO VISIBILITY.  THE FOLLOWING
OBSERVATION LOCATIONS DO NOT REPORT PRESENT WEATHER...PROVINCETOWN...
SMITHFIELD...BLOCK ISLAND...KEENE...AND OXFORD.

MAZALL-282300-
EASTERN MASSACHUSETTS

CITY           SKY/WX    TMP DP  RH WIND       PRES   REMARKS
BOSTON         LGT SNOW  34  31  88 N7        29.84R FOG     WCI  28
BEVERLY        CLOUDY    34  29  82 N6        29.82R WCI  29
LAWRENCE       FLURRIES  34  31  88 NW6       29.84R WCI  29
BEDFORD        LGT SNOW  33  31  92 N5        29.83R FOG     WCI  29
BLUE HILL        N/A     31  30  96 NE9       29.80R WCI  23
NORWOOD        LGT SNOW  34  31  88 VRB3      29.84R FOG
MARSHFIELD     LGT SNOW  34  32  93 N10G22    29.85R WCI  26
PLYMOUTH       LGT SNOW  32  30  92 N13G21    29.83R FOG     WCI  22
TAUNTON        LGT SNOW  34  31  88 N6        29.83R FOG     WCI  29
NEW BEDFORD    LGT SNOW  34  32  92 N6        29.82R FOG     WCI  29
$$

MAZALL-282300-
CAPE COD AND THE ISLANDS

CITY           SKY/WX    TMP DP  RH WIND       PRES   REMARKS
FALMOUTH       CLOUDY    34  30  86 N10G18    29.81R WCI  26
HYANNIS        CLOUDY    34  32  92 N12       29.78R WCI  25
CHATHAM        LGT SNOW  33  31  92 N10G20    29.80R FOG     WCI  25
PROVINCETOWN   CLOUDY    34  30  86 N16G25    29.82R WCI  23
NANTUCKET      CLOUDY    35  31  85 N15G25    29.79R WCI  25
MARTHAS VNYRD  CLOUDY    34  26  72 N14       29.81R WCI  25
$$

MAZALL-282300-
CENTRAL AND WESTERN MASSACHUSETTS

CITY           SKY/WX    TMP DP  RH WIND       PRES   REMARKS
WORCESTER      LGT SNOW  31  28  89 N6        29.80R VSB 1   WCI  25
FITCHBURG      LGT SNOW  34  28  79 N7        29.85R WCI  28
ORANGE         CLOUDY    33  22  63 N12       29.84R WCI  24
SPRINGFIELD    FLURRIES  33  28  81 N7        29.85R WCI  27
WESTFIELD      CLOUDY    33  23  66 NW10      29.86R WCI  25
NORTH ADAMS    CLOUDY    29  13  51 VRB5G20   29.90R WCI  24
PITTSFIELD     CLOUDY    28  15  58 N12       29.85R WCI  18
$$

RIZALL-282300-
RHODE ISLAND

CITY           SKY/WX    TMP DP  RH WIND       PRES   REMARKS
PROVIDENCE     LGT SNOW  34  31  88 NE14      29.84R VSB 1   WCI  25
NEWPORT        LGT SNOW  33  31  92 N10       29.82R FOG     WCI  25
BLOCK ISLAND   CLOUDY    34  30  86 NE7       29.83R WCI  28
SMITHFIELD     CLOUDY    32  27  80 NE6       29.81R VSB 3/4 WCI  26
WESTERLY       LGT SNOW  34  32  92 N5        29.85R FOG     WCI  30
$$

CTZALL-282300-
CONNECTICUT

CITY           SKY/WX    TMP DP  RH WIND       PRES   REMARKS
BRADLEY INTL   LGT SNOW  32  26  78 NW9       29.87R FOG     WCI  24
HARTFORD       LGT SNOW  32  27  81 NW9G17    29.88R WCI  24
BRIDGEPORT     LGT SNOW  32  25  75 NW15      29.89R WCI  22
DANBURY        CLOUDY    29  22  75 NW7       29.90R HAZE    WCI  22
GROTON         LGT SNOW  34  33  96 NW7       29.84R FOG     WCI  28
NEW HAVEN      LGT SNOW  31  27  85 NW9G20    29.87R FOG     WCI  23
CHESTER        LGT SNOW  32  30  93 NW13      29.85R VSB 3/4 WCI  22
MERIDEN        LGT SNOW  31  24  75 NW10      29.88R WCI  22
WILLIMANTIC    LGT SNOW  33  30  88 NW8       29.85R FOG     WCI  26
OXFORD         CLOUDY    28  18  64 NW6       29.87R WCI  22
$$

MEZ002-015-021-024-NHZ003-005-008-011-012-014-VTZ005-008-282300-
NORTHERN NEW ENGLAND

CITY           SKY/WX    TMP DP  RH WIND       PRES   REMARKS
PORTLAND ME    CLOUDY    40  21  46 NE6       29.80R
BANGOR ME      CLOUDY    36  16  44 N12       29.77R WCI  28
CONCORD NH     CLOUDY    36  25  64 NW6       29.82R WCI  31
MANCHESTER NH  LGT SNOW  34  32  92 NW9       29.82R FOG     WCI  27
NASHUA NH      LGT SNOW  34  31  89 N10       29.84R FOG     WCI  26
PORTSMOUTH NH  PTSUNNY   35  29  79 S3        29.81R
JAFFREY NH     CLOUDY    31  23  72 NW5       29.81R WCI  26
KEENE NH       MOSUNNY   34  19  55 N9        29.85R WCI  26
BURLINGTON VT  MOSUNNY   27   3  35 N10G22    30.00R WCI  17
MT. WASHINGTON SNOW       5   5 100 NW28        N/A  VSB 0   WCI -18
$$

NYZ052-076-282300-
EASTERN NEW YORK

CITY           SKY/WX    TMP DP  RH WIND       PRES   REMARKS
ALBANY         LGT SNOW  29  21  72 NW13      29.95R VSB 1   WCI  19
NEW YORK CITY  PTSUNNY   36  24  62 N14       29.90R WCI  27
$$

ANZALL-282300-
MARINE OBSERVATIONS

STATION/POSITION TIME  TEMP    WIND        PRES    VSBY  WAVE
                       AIR SEA DIR/SP/G                  HT/PER
                 (UTC) (F)     (DEG/KT/KT) (MB)    (MI)  (FT/S)
BOSTON BUOY      2150   33 36   20/ 21/ 25 1009.3R         8/ 7
BUZZARDS BAY     2200          360/ 14/ 15 1010.5R
NANTUCKET SOUND  2150   35 36  350/ 19/ 23 1008.2R         4/ 4
MASS BAY-STELLWA 2104   33 37   10/ 23/ 27   N/A    1 3/4  8/ 6
ISLE OF SHOALS   2200   33      30/  9/ 10 1009.3R
S OF BLOCK IS    2108      38                N/A           7/11
$$

......................KEY.........................
  SKY/WX - SKY CONDITION/PRESENT WEATHER
  TMP    - TEMPERATURE IN FAHRENHEIT
  DWPT   - DEWPOINT IN FAHRENHEIT
  RH     - RELATIVE HUMIDITY IN PERCENT
  WIND   - DIRECTION AND SPEED IN MPH
  PRES   - MEAN SEA LEVEL PRESSURE IN INCHES OF HG
  WCI    - WIND CHILL INDEX
  VSB    - VISIBILITY IN MILES
  HX     - HEAT INDEX
  TC     - TEMPERATURE IN CELSIUS
  VRB    - VARIABLE WIND DIRECTION
  N/A    - NOT AVAILABLE


USA.gov is the U.S. government's official web portal to all federal, state and local government web resources and services.